Tracking 28792 objects as of 25-Apr-2024
HD Live streaming from Space Station
objects crossing your sky now

CZ-2D DEB

Track CZ-2D DEB now!
10-day predictions


NORAD ID: 38301
Int'l Code: 2010-027F
Perigee: 523.2 km
Apogee: 697.3 km
Inclination: 97.7 °
Period: 96.8 minutes
Semi major axis: 6981 km
RCS: 0.0012 m2 (small)
Launch date: June 15, 2010
Source: People's Republic of China (PRC)
Launch site: Jiuquan Satellite Launch Center, China (JSC)

Note: This is SATELLITE DEBRIS
Your satellite tracking list
Your tracking list is empty




NASA's NSSDC Master Catalog

Two Line Element Set (TLE):
1 38301U 10027F   24115.55703223  .00029729  00000-0  27758-2 0  9995
2 38301  97.7029 339.1587 0124625 340.4527  48.1362 14.88342592730293
Source of the keplerian elements: AFSPC